Station LPNM4 - 9075065 - Alpena, MI Image indicating link to RSS feed of recent meteorological observations for station LPNM4


Conditions at LPNM4 as of
(3:48 pm EDT)
1948 GMT on 04/16/2024:
     

Click on the graph icon in the table below to see a time series plot of the last five days of that observation.

5-day plot - Wind Direction Wind Direction (WDIR): S ( 190 deg true )
5-day plot - Wind Speed Wind Speed (WSPD): 5.1 kts
5-day plot - Wind Gust Wind Gust (GST): 7.0 kts
5-day plot - Atmospheric Pressure Atmospheric Pressure (PRES):30.17 in
5-day plot - Air Temperature Air Temperature (ATMP): 47.1 °F
5-day plot - Water Temperature Water Temperature (WTMP): 46.6 °F
5-day plot - Dew Point Dew Point (DEWP): 35.6 °F
5-day plot - Wind Chill Wind Chill (CHILL): 44.4 °F
5-day plot - Wind Speed at 10 Meters Wind Speed at 10 meters (WSPD10M): 5.8 kts
5-day plot - Wind Speed at 20 Meters Wind Speed at 20 meters (WSPD20M): 5.8 kts
5-day plot -  Wind Speed, Wind Gust and Atmospheric Pressure Combined plot of Wind Speed, Gust, and Air Pressure
NOS Water Level Observation Network Water Level
Previous observations
TIME
(EDT)
5-day plot - Wind Direction
WDIR
 
5-day plot - Wind Speed
WSPD
kts
5-day plot - Wind Gust
GST
kts
5-day plot - Wave Height
WVHT
ft
5-day plot - Dominant Wave Period
DPD
sec
5-day plot - Average Wave Period
APD
sec
5-day plot - Mean Wave Direction
MWD
 
5-day plot - Atmospheric Pressure
PRES
in
5-day plot - Pressure Tendency
PTDY
in
5-day plot - Air Temperature
ATMP
°F
5-day plot - Water Temperature
WTMP
°F
5-day plot - Dew Point
DEWP
°F
5-day plot - Salinity
SAL
psu
5-day plot - Visibility
VIS
nmi
5-day plot - Tide (above MLLW)
TIDE
ft
2024-04-16 03:42 pm S 6.0 8.0----30.17- 47.1 46.6 35.8---
2024-04-16 03:36 pm S 6.0 8.9----30.18- 47.1 46.6 36.5---
2024-04-16 03:30 pm S 6.0 8.0----30.18- 46.9 46.6 37.0---
2024-04-16 03:24 pm S 5.1 8.0----30.18- 46.4 46.6 36.7---
2024-04-16 03:18 pmSSW 7.0 8.0----30.19- 47.1 46.6 36.0---
2024-04-16 03:12 pm S 6.0 8.0----30.19- 48.2 46.6 34.3---
2024-04-16 03:06 pmSSE 6.0 7.0----30.19- 48.4 46.6 32.4---
2024-04-16 03:00 pmSSE 4.1 6.0----30.19-0.03 49.8 46.4 34.3---
2024-04-16 02:54 pm SE 5.1 8.0----30.18- 49.6 46.6 33.6---
2024-04-16 02:48 pmESE 6.0 8.9----30.18- 48.6 46.6 32.2---
2024-04-16 02:42 pmESE 7.0 8.9----30.18- 48.6 46.4 32.4---
2024-04-16 02:36 pmESE 6.0 8.0----30.18- 48.9 46.4 32.5---
2024-04-16 02:30 pmESE 5.1 8.0----30.18- 49.6 46.4 33.4---
2024-04-16 02:24 pm SE 4.1 8.0----30.18- 49.5 46.4 33.3---
2024-04-16 02:18 pmSSE 5.1 8.9----30.19- 49.5 46.4 33.1---
2024-04-16 02:12 pmESE 5.1 8.0----30.19- 50.0 46.4 32.0---
2024-04-16 02:06 pmESE 5.1 8.0----30.19- 49.1 46.4 31.8---
2024-04-16 02:00 pmESE 6.0 8.0----30.19-0.03 48.9 46.6 32.4---
2024-04-16 01:54 pmESE 6.0 8.0----30.19- 49.3 46.6 31.6---
2024-04-16 01:48 pmESE 6.0 8.9----30.19- 48.6 46.6 31.3---
2024-04-16 01:42 pm SE 4.1 8.9----30.20- 49.1 46.6 31.6---
2024-04-16 01:36 pmESE 6.0 8.0----30.20- 48.6 46.4 31.1---
2024-04-16 01:30 pmESE 4.1 8.0----30.21- 49.5 46.4 31.5---
2024-04-16 01:24 pmESE 5.1 8.0----30.21- 49.1 46.4 31.5---
2024-04-16 01:18 pmESE 5.1 8.0----30.21- 49.5 46.4 31.3---
2024-04-16 01:12 pmESE 5.1 8.0----30.22- 48.9 46.4 31.1---
2024-04-16 01:06 pm SE 4.1 7.0----30.22- 50.4 46.4 31.6---
2024-04-16 01:00 pmSSE 4.1 8.0----30.22+0.01 50.5 46.4 31.8---
2024-04-16 12:54 pm SE 4.1 7.0----30.22- 50.2 46.4 30.9---
2024-04-16 12:48 pmSSE 4.1 7.0----30.22- 50.4 46.4 31.6---
2024-04-16 12:42 pmESE 5.1 8.0----30.22- 49.5 46.4 29.7---
2024-04-16 12:36 pmESE 6.0 8.0----30.22- 50.0 46.4 30.4---
2024-04-16 12:30 pmESE 5.1 8.0----30.22- 49.5 46.4 31.3---
2024-04-16 12:24 pmESE 5.1 7.0----30.22- 49.6 46.4 30.6---
2024-04-16 12:18 pmESE 6.0 8.0----30.22- 48.6 46.4 30.9---
2024-04-16 12:12 pmESE 5.1 8.0----30.22- 49.3 46.4 32.0---
2024-04-16 12:06 pm SE 5.1 7.0----30.22- 49.3 46.4 32.7---
2024-04-16 12:00 pmESE 4.1 7.0----30.22+0.02 49.1 46.4 33.3---
2024-04-16 11:54 amSSE 6.0 7.0----30.22- 47.7 46.4 32.4---
2024-04-16 11:48 amSSE 4.1 6.0----30.22- 48.7 46.4 32.5---
2024-04-16 11:42 am S 6.0 8.0----30.21- 47.8 46.4 31.8---
2024-04-16 11:36 amESE 2.9 8.9----30.21- 49.3 46.4 31.8---
2024-04-16 11:30 am S 7.0 8.9----30.21- 48.0 46.4 32.0---
2024-04-16 11:24 am SE 5.1 8.0----30.20- 48.6 46.4 30.9---
2024-04-16 11:18 am SE 5.1 7.0----30.20- 48.7 46.4 30.7---
2024-04-16 11:12 amESE 6.0 7.0----30.21- 48.7 46.4 29.7---
2024-04-16 11:06 amESE 5.1 7.0----30.21- 48.9 46.4 30.2---
2024-04-16 11:00 amESE 4.1 7.0----30.21+0.04 48.7 46.4 29.7---
2024-04-16 10:54 amESE 4.1 8.0----30.21- 48.7 46.4 30.0---
2024-04-16 10:48 amESE 5.1 9.9----30.21- 48.6 46.4 29.8---
2024-04-16 10:42 amESE 4.1 8.9----30.21- 48.7 46.4 30.2---
2024-04-16 10:36 amESE 5.1 8.0----30.21- 48.4 46.4 30.4---
2024-04-16 10:30 amESE 5.1 8.0----30.21- 48.6 46.4 30.9---
2024-04-16 10:24 amESE 5.1 7.0----30.21- 47.8 46.4 30.6---
2024-04-16 10:18 amSSE 4.1 5.1----30.21- 48.4 46.4 31.6---
2024-04-16 10:12 am SE 2.9 8.0----30.22- 47.7 46.4 30.7---
2024-04-16 10:06 amESE 5.1 8.0----30.21- 47.8 46.4 30.2---
2024-04-16 10:00 amESE 4.1 6.0----30.21+0.04 48.0 46.4 30.9---
2024-04-16 09:54 amESE 4.1 8.0----30.20- 47.7 46.4 31.5---
2024-04-16 09:48 amESE 4.1 6.0----30.20- 47.5 46.6 31.1---
2024-04-16 09:42 amESE 4.1 7.0----30.20- 47.8 46.6 31.5---
2024-04-16 09:36 amESE 6.0 8.0----30.19- 47.1 46.6 31.1---
2024-04-16 09:30 amESE 5.1 8.0----30.19- 47.1 46.4 31.5---
2024-04-16 09:24 am E 4.1 7.0----30.19- 46.6 46.4 31.5---
2024-04-16 09:18 amESE 4.1 5.1----30.19- 46.4 46.4 32.0---
2024-04-16 09:12 amESE 2.9 4.1----30.19- 46.9 46.4 32.7---
2024-04-16 09:06 amESE 1.9 4.1----30.19- 46.4 46.4 33.4---
2024-04-16 09:00 amENE 1.9 4.1----30.19+0.04 45.5 46.4 34.2---
2024-04-16 08:54 amNNE 4.1 5.1----30.19- 44.8 46.4 34.2---
2024-04-16 08:48 am N 1.9 2.9----30.19- 44.1 46.4 34.9---
2024-04-16 08:42 amNNE 1.9 4.1----30.19- 42.8 46.4 34.9---
2024-04-16 08:36 am N 2.9 4.1----30.18- 41.7 46.4 34.7---
2024-04-16 08:30 am N 1.9 4.1----30.19- 41.2 46.4 34.2---
2024-04-16 08:24 am N 2.9 5.1----30.18- 40.6 46.4 34.0---
2024-04-16 08:18 am N 2.9 5.1----30.18- 40.3 46.4 33.8---
2024-04-16 08:12 am N 2.9 4.1----30.18- 39.6 46.4 33.6---
2024-04-16 08:06 am N 2.9 5.1----30.18- 38.8 46.4 33.3---
2024-04-16 08:00 am N 4.1 5.1----30.17+0.04 38.7 46.4 33.1---
2024-04-16 07:54 am N 2.9 4.1----30.17- 38.3 46.4 33.3---
2024-04-16 07:48 am N 2.9 5.1----30.17- 37.8 46.6 32.9---
2024-04-16 07:42 amNNW 4.1 5.1----30.17- 37.4 46.6 32.7---
2024-04-16 07:36 amNNW 4.1 5.1----30.17- 37.0 46.4 32.5---
2024-04-16 07:30 amNNW 2.9 5.1----30.17- 36.7 46.4 32.4---
2024-04-16 07:24 amNNW 4.1 5.1----30.17- 36.7 46.6 32.4---
2024-04-16 07:18 amNNW 4.1 5.1----30.16- 36.5 46.6 32.2---
2024-04-16 07:12 amNNW 2.9 5.1----30.16- 36.1 46.6 31.8---
2024-04-16 07:06 amNNW 4.1 5.1----30.16- 36.1 46.6 31.6---
2024-04-16 07:00 amNNW 2.9 5.1----30.16+0.05 36.1 46.6 31.5---
2024-04-16 06:54 amNNW 2.9 5.1----30.16- 36.1 46.4 31.5---
2024-04-16 06:48 amNNW 4.1 5.1----30.16- 36.0 46.6 31.3---
2024-04-16 06:42 amNNW 4.1 5.1----30.16- 36.0 46.6 31.3---
2024-04-16 06:36 am N 2.9 5.1----30.15- 35.8 46.4 31.1---
2024-04-16 06:30 am N 2.9 4.1----30.15- 35.8 46.4 31.1---
2024-04-16 06:24 am N 2.9 4.1----30.15- 36.1 46.4 31.3---
2024-04-16 06:18 am N 2.9 5.1----30.15- 36.3 46.4 31.3---
2024-04-16 06:12 am N 2.9 5.1----30.15- 36.5 46.4 31.5---
2024-04-16 06:06 am N 2.9 4.1----30.15- 36.7 46.4 31.6---
2024-04-16 06:00 am N 2.9 4.1----30.15+0.04 36.7 46.4 31.5---
2024-04-16 05:54 am N 2.9 5.1----30.15- 37.0 46.4 32.0---
2024-04-16 05:48 amNNW 2.9 5.1----30.15- 37.0 46.4 32.0---
2024-04-16 05:42 amNNW 2.9 5.1----30.15- 37.2 46.4 32.0---
2024-04-16 05:36 amNNW 2.9 4.1----30.14- 37.2 46.4 31.8---
2024-04-16 05:30 amNNW 4.1 5.1----30.14- 37.6 46.4 32.0---
2024-04-16 05:24 amNNW 4.1 6.0----30.14- 37.8 46.4 32.2---
2024-04-16 05:18 am N 4.1 5.1----30.14- 37.9 46.4 32.4---
2024-04-16 05:12 am N 4.1 5.1----30.14- 37.9 46.4 32.0---
2024-04-16 05:06 am N 2.9 5.1----30.14- 38.3 46.4 32.2---
2024-04-16 05:00 amNNW 2.9 4.1----30.13+0.03 38.3 46.4 32.0---
2024-04-16 04:54 amNNW 2.9 5.1----30.13- 38.5 46.4 32.4---
2024-04-16 04:48 amNNW 2.9 4.1----30.13- 38.7 46.4 32.5---
2024-04-16 04:42 amNNW 2.9 4.1----30.13- 38.7 46.4 32.5---
2024-04-16 04:36 amNNW 2.9 5.1----30.13- 38.5 46.4 32.2---
2024-04-16 04:30 amNNW 2.9 4.1----30.12- 38.7 46.4 32.0---
2024-04-16 04:24 amWNW 1.9 5.1----30.12- 39.0 46.4 32.2---
2024-04-16 04:18 am NW 4.1 5.1----30.12- 39.0 46.4 32.4---
2024-04-16 04:12 amNNW 2.9 5.1----30.11- 38.8 46.4 31.6---
2024-04-16 04:06 amNNW 4.1 5.1----30.11- 39.0 46.4 31.6---
2024-04-16 04:00 amNNW 2.9 5.1----30.11+0.02 38.8 46.4 31.6---
2024-04-16 03:54 amNNW 2.9 5.1----30.11- 38.5 46.4 31.3---
2024-04-16 03:48 am N 4.1 5.1----30.11- 38.5 46.4 30.9---
2024-04-16 03:42 am N 4.1 5.1----30.11- 38.7 46.4 30.9---
2024-04-16 03:36 am N 4.1 5.1----30.11- 39.0 46.4 31.3---
2024-04-16 03:30 am N 2.9 5.1----30.11- 39.2 46.4 31.5---
2024-04-16 03:24 am N 2.9 4.1----30.11- 39.6 46.4 31.8---
2024-04-16 03:18 am N 4.1 5.1----30.11- 39.9 46.4 32.0---
2024-04-16 03:12 am N 4.1 6.0----30.11- 39.9 46.4 32.0---
2024-04-16 03:06 am NW 2.9 4.1----30.11- 40.1 46.4 32.2---
2024-04-16 03:00 am NW 4.1 6.0----30.11+0.04 40.5 46.4 32.4---
2024-04-16 02:54 am NW 4.1 5.1----30.11- 40.3 46.4 32.2---
2024-04-16 02:48 amNNW 2.9 4.1----30.11- 40.3 46.4 31.6---
2024-04-16 02:42 amNNW 4.1 6.0----30.11- 40.3 46.4 31.5---
2024-04-16 02:36 amNNW 5.1 7.0----30.11- 40.3 46.6 31.5---
2024-04-16 02:30 amNNW 5.1 6.0----30.11- 40.3 46.6 31.5---
2024-04-16 02:24 amNNW 5.1 7.0----30.10- 40.5 46.4 31.6---
2024-04-16 02:18 am N 6.0 7.0----30.10- 40.6 46.4 31.5---
2024-04-16 02:12 am N 5.1 7.0----30.11- 40.6 46.4 31.8---
2024-04-16 02:06 amNNW 5.1 6.0----30.11- 40.6 46.4 31.6---
2024-04-16 02:00 am N 5.1 7.0----30.10+0.04 40.6 46.4 31.8---
2024-04-16 01:54 amNNW 4.1 7.0----30.10- 40.5 46.4 32.2---
2024-04-16 01:48 am N 5.1 6.0----30.10- 40.6 46.4 32.2---
2024-04-16 01:42 am N 2.9 5.1----30.10- 40.6 46.4 31.8---
2024-04-16 01:36 am N 4.1 5.1----30.10- 40.8 46.4 31.8---
2024-04-16 01:30 am N 4.1 7.0----30.10- 41.2 46.4 32.4---
2024-04-16 01:24 amNNW 4.1 6.0----30.09- 41.2 46.6 32.4---
2024-04-16 01:18 am N 5.1 8.0----30.09- 41.2 46.4 32.2---
2024-04-16 01:12 amNNW 5.1 6.0----30.09- 41.4 46.4 32.4---
2024-04-16 01:06 am N 4.1 7.0----30.09- 41.4 46.4 32.4---
2024-04-16 01:00 amNNW 5.1 7.0----30.09+0.04 41.4 46.4 32.4---
2024-04-16 12:54 am N 5.1 7.0----30.09- 41.7 46.4 32.2---
2024-04-16 12:48 am N 6.0 7.0----30.09- 41.9 46.4 32.2---
2024-04-16 12:42 amNNW 6.0 8.0----30.09- 41.9 46.4 32.2---
2024-04-16 12:36 amNNW 5.1 8.0----30.09- 42.1 46.4 32.2---
2024-04-16 12:30 amNNW 5.1 8.0----30.09- 42.3 46.4 32.2---
2024-04-16 12:24 amNNW 6.0 8.9----30.09- 42.6 46.4 32.5---
2024-04-16 12:18 am N 6.0 8.0----30.08- 42.6 46.4 32.5---
2024-04-16 12:12 am N 6.0 8.0----30.08- 42.8 46.4 32.5---
2024-04-16 12:06 am N 6.0 8.9----30.08- 43.0 46.4 32.5---
2024-04-16 12:00 am N 6.0 8.9----30.07+0.04 43.0 46.4 32.7---
2024-04-15 11:54 pm N 4.1 6.0----30.08- 43.0 46.4 32.5---
2024-04-15 11:48 pm N 5.1 7.0----30.08- 43.2 46.4 32.5---
2024-04-15 11:42 pm N 6.0 8.0----30.07- 43.2 46.6 32.5---
2024-04-15 11:36 pm N 6.0 8.0----30.07- 43.3 46.6 32.7---
2024-04-15 11:30 pm N 7.0 9.9----30.07- 43.5 46.6 33.1---
2024-04-15 11:24 pm N 7.0 11.1----30.07- 43.5 46.4 32.9---
2024-04-15 11:18 pm N 8.0 11.1----30.06- 43.7 46.4 33.1---
2024-04-15 11:12 pm N 8.0 11.1----30.06- 43.9 46.6 33.1---
2024-04-15 11:06 pm N 6.0 8.9----30.06- 44.1 46.4 33.3---
2024-04-15 11:00 pm N 6.0 8.9----30.06+0.06 44.2 46.4 33.3---
2024-04-15 10:54 pm N 7.0 9.9----30.06- 44.4 46.4 33.3---
2024-04-15 10:48 pm N 5.1 8.0----30.06- 44.8 46.4 33.3---
2024-04-15 10:42 pm N 5.1 8.9----30.06- 45.0 46.4 33.3---
2024-04-15 10:36 pm N 5.1 11.1----30.06- 45.1 46.4 33.1---
2024-04-15 10:30 pm N 6.0 8.9----30.06-- 46.4----
2024-04-15 10:24 pm N 6.0 8.9----30.06-- 46.4----
2024-04-15 10:18 pm N 7.0 9.9----30.06- 45.7 46.4 33.4---
2024-04-15 10:12 pm N 7.0 11.1----30.05- 45.9 46.4 33.6---
2024-04-15 10:06 pm N 7.0 11.1----30.05- 46.0 46.4 33.6---
2024-04-15 10:00 pm N 7.0 9.9----30.05+0.06 46.2 46.4 33.6---
2024-04-15 09:54 pm N 7.0 11.1----30.05- 46.6 46.4 33.8---
2024-04-15 09:48 pm N 7.0 11.1----30.05- 46.8 46.4 33.8---
2024-04-15 09:42 pm N 5.1 11.1----30.04- 47.1 46.4 34.2---
2024-04-15 09:36 pm N 7.0 12.0----30.04- 47.5 46.4 34.2---
2024-04-15 09:30 pm N 8.0 9.9----30.04- 47.7 46.4 34.0---
2024-04-15 09:24 pm N 7.0 14.0----30.04- 48.0 46.4 34.2---
2024-04-15 09:18 pm N 7.0 11.1----30.03- 48.2 46.6 34.3---
2024-04-15 09:12 pm N 6.0 9.9----30.03- 48.6 46.6 34.5---
2024-04-15 09:06 pm N 6.0 9.9----30.03- 48.9 46.6 34.7---
2024-04-15 09:00 pm N 6.0 8.9----30.03+0.06- 46.6----
2024-04-15 08:54 pm N 5.1 8.9----30.02-- 46.6----
2024-04-15 08:48 pm N 5.1 8.0----30.02- 49.6 46.6 34.7---
2024-04-15 08:42 pm N 6.0 9.9----30.02- 50.2 46.6 34.7---
2024-04-15 08:36 pm N 7.0 8.9----30.01- 50.5 46.4 34.7---
2024-04-15 08:30 pm N 6.0 8.0----30.01- 51.1 46.4 35.1---
2024-04-15 08:24 pm N 2.9 7.0----30.01- 51.6 46.4 36.0---
2024-04-15 08:18 pm N 5.1 8.0----30.01-- 46.4----
2024-04-15 08:12 pmNNE 5.1 8.0----30.00-- 46.4----
2024-04-15 08:06 pmNNE 5.1 9.9----30.00-- 46.4----
2024-04-15 08:00 pm NE 6.0 8.9----30.00+0.04 53.8 46.4 36.5---
2024-04-15 07:54 pm N 7.0 11.1----30.00- 54.3 46.6 36.3---
2024-04-15 07:48 pm N 5.1 11.1----29.99- 54.7 46.4 36.5---
2024-04-15 07:42 pm N 4.1 8.0----29.99- 55.0 46.4 36.5---
2024-04-15 07:36 pmNNE 4.1 8.0----29.99- 55.0 46.4 36.1---
2024-04-15 07:30 pm N 5.1 7.0----29.99- 55.2 46.4 36.1---
2024-04-15 07:24 pmNNE 6.0 8.9----29.99- 55.4 46.4 36.5---
2024-04-15 07:18 pm N 5.1 8.0----29.99- 55.2 46.4 36.9---
2024-04-15 07:12 pm N 6.0 9.9----29.99- 55.0 46.4 36.9---
2024-04-15 07:06 pm N 7.0 9.9----29.99- 55.4 46.4 37.0---
2024-04-15 07:00 pmNNE 4.1 8.9----29.99+0.05 55.6 46.6 37.2---
2024-04-15 06:54 pmNNE 6.0 12.0----29.99- 55.4 46.6 36.9---
2024-04-15 06:48 pmNNE 7.0 11.1----29.98- 55.8 46.6 36.9---
2024-04-15 06:42 pmNNE 5.1 9.9----29.98- 56.7 46.6 37.2---
2024-04-15 06:36 pm NE 5.1 11.1----29.98- 55.9 46.4 36.7---
2024-04-15 06:30 pm NE 8.0 12.0----29.98-- 46.6----
2024-04-15 06:24 pmNNE 6.0 11.1----29.98-- 46.4----
2024-04-15 06:18 pmNNE 8.0 12.0----29.98- 56.7 46.4 36.3---
2024-04-15 06:12 pm NE 7.0 13.0----29.98- 56.5 46.4 36.0---
2024-04-15 06:06 pm NE 8.0 11.1----29.98- 56.8 46.4 36.0---
2024-04-15 06:00 pmNNE 8.9 13.0----29.97+0.05 56.8 46.4 35.6---
2024-04-15 05:54 pmNNE 7.0 11.1----29.97- 57.4 46.4 36.1---
2024-04-15 05:48 pm NE 6.0 12.0----29.97- 57.4 46.4 36.0---
2024-04-15 05:42 pmNNE 5.1 8.9----29.97- 57.4 46.4 36.1---
2024-04-15 05:36 pm N 5.1 8.9----29.97- 55.4 46.4 36.3---
2024-04-15 05:30 pmENE 2.9 5.1----29.97- 56.8 46.4 37.4---
2024-04-15 05:24 pm- 0.0 5.1----29.97- 56.3 46.4 36.9---
2024-04-15 05:18 pm E 4.1 8.9------ 55.4 46.4 37.0---
2024-04-15 05:12 pm E 6.0 8.9------ 54.5 46.4 37.2---
2024-04-15 05:06 pm S 2.9 7.0------ 52.0 46.4 38.7---
2024-04-15 05:00 pmSSE 5.1 8.0----29.96+0.05 50.2 46.4 39.2---
2024-04-15 04:54 pmSSE 2.9 8.0----29.96- 50.0 46.4 40.5---
2024-04-15 04:48 pmSSE 6.0 8.0----29.96- 48.9 46.4 40.3---
2024-04-15 04:42 pmSSE 6.0 8.0----29.95- 48.4 46.4 39.7---
2024-04-15 04:36 pmSSE 2.9 7.0----29.95- 48.2 46.4 40.5---
2024-04-15 04:30 pm S 5.1 7.0----29.95- 46.9 46.4 39.2---
2024-04-15 04:24 pmSSE 5.1 8.9----29.95-- 46.4----
2024-04-15 04:18 pm S 7.0 8.9----29.95-- 46.4----
2024-04-15 04:12 pmSSE 6.0 8.0----29.94-- 46.4----
2024-04-15 04:06 pm S 7.0 8.9----29.94-- 46.4----
2024-04-15 04:00 pm S 8.0 9.9----29.94+0.03- 46.4----
2024-04-15 03:54 pmSSE 5.1 8.9----29.94-- 46.4----